Year,Month,Day,Hour,Minute,Value (Times are PST for temperature in C)
2018,04,26,00,00,12.50
2018,04,26,00,01,12.50
2018,04,26,00,02,12.50
2018,04,26,00,03,12.50
2018,04,26,00,04,12.40
2018,04,26,00,05,12.40
2018,04,26,00,06,12.40
2018,04,26,00,07,12.40
2018,04,26,00,08,12.40
2018,04,26,00,09,12.30
2018,04,26,00,10,12.30
2018,04,26,00,11,12.30
2018,04,26,00,12,12.30
2018,04,26,00,13,12.30
2018,04,26,00,14,12.30
2018,04,26,00,15,12.20
2018,04,26,00,16,12.20
2018,04,26,00,17,12.20
2018,04,26,00,18,12.20
2018,04,26,00,19,12.20
2018,04,26,00,20,12.20
2018,04,26,00,21,12.20
2018,04,26,00,22,12.20
2018,04,26,00,23,12.20
2018,04,26,00,24,12.20
2018,04,26,00,25,12.20
2018,04,26,00,26,12.20
2018,04,26,00,27,12.20
2018,04,26,00,28,12.20
2018,04,26,00,29,12.10
2018,04,26,00,30,12.10
2018,04,26,00,31,12.10
2018,04,26,00,32,12.10
2018,04,26,00,33,12.10
2018,04,26,00,34,12.10
2018,04,26,00,35,12.10
2018,04,26,00,36,12.10
2018,04,26,00,37,12.00
2018,04,26,00,38,12.00
2018,04,26,00,39,11.90
2018,04,26,00,40,11.90
2018,04,26,00,41,11.90
2018,04,26,00,42,11.90
2018,04,26,00,43,11.80
2018,04,26,00,44,11.80
2018,04,26,00,45,11.80
2018,04,26,00,46,11.80
2018,04,26,00,47,11.80
2018,04,26,00,48,11.80
2018,04,26,00,49,11.80
2018,04,26,00,50,11.80
2018,04,26,00,51,11.80
2018,04,26,00,52,11.80
2018,04,26,00,53,11.70
2018,04,26,00,54,11.70
2018,04,26,00,55,11.70
2018,04,26,00,56,11.70
2018,04,26,00,57,11.70
2018,04,26,00,58,11.70
2018,04,26,00,59,11.60
2018,04,26,01,00,11.60
2018,04,26,01,01,11.60
2018,04,26,01,02,11.60
2018,04,26,01,03,11.60
2018,04,26,01,04,11.60
2018,04,26,01,05,11.50
2018,04,26,01,06,11.50
2018,04,26,01,07,11.50
2018,04,26,01,08,11.50
2018,04,26,01,09,11.40
2018,04,26,01,10,11.40
2018,04,26,01,11,11.40
2018,04,26,01,12,11.40
2018,04,26,01,13,11.40
2018,04,26,01,14,11.30
2018,04,26,01,15,11.30
2018,04,26,01,16,11.30
2018,04,26,01,17,11.30
2018,04,26,01,18,11.30
2018,04,26,01,19,11.30
2018,04,26,01,20,11.30
2018,04,26,01,21,11.30
2018,04,26,01,22,11.30
2018,04,26,01,23,11.30
2018,04,26,01,24,11.30
2018,04,26,01,25,11.30
2018,04,26,01,26,11.30
2018,04,26,01,27,11.30
2018,04,26,01,28,11.20
2018,04,26,01,29,11.20
2018,04,26,01,30,11.20
2018,04,26,01,31,11.20
2018,04,26,01,32,11.20
2018,04,26,01,33,11.10
2018,04,26,01,34,11.10
2018,04,26,01,35,11.10
2018,04,26,01,36,11.00
2018,04,26,01,37,11.00
2018,04,26,01,38,10.90
2018,04,26,01,39,10.90
2018,04,26,01,40,10.90
2018,04,26,01,41,10.80
2018,04,26,01,42,10.80
2018,04,26,01,43,10.80
2018,04,26,01,44,10.70
2018,04,26,01,45,10.70
2018,04,26,01,46,10.70
2018,04,26,01,47,10.60
2018,04,26,01,48,10.60
2018,04,26,01,49,10.60
2018,04,26,01,50,10.60
2018,04,26,01,51,10.50
2018,04,26,01,52,10.50
2018,04,26,01,53,10.50
2018,04,26,01,54,10.50
2018,04,26,01,55,10.50
2018,04,26,01,56,10.50
2018,04,26,01,57,10.50
2018,04,26,01,58,10.50
2018,04,26,01,59,10.40
2018,04,26,02,00,10.40
2018,04,26,02,01,10.40
2018,04,26,02,02,10.30
2018,04,26,02,03,10.30
2018,04,26,02,04,10.30
2018,04,26,02,05,10.30
2018,04,26,02,06,10.30
2018,04,26,02,07,10.20
2018,04,26,02,08,10.20
2018,04,26,02,09,10.20
2018,04,26,02,10,10.20
2018,04,26,02,11,10.20
2018,04,26,02,12,10.30
2018,04,26,02,13,10.30
2018,04,26,02,14,10.30
2018,04,26,02,15,10.30
2018,04,26,02,16,10.40
2018,04,26,02,17,10.40
2018,04,26,02,18,10.50
2018,04,26,02,19,10.60
2018,04,26,02,20,10.60
2018,04,26,02,21,10.60
2018,04,26,02,22,10.60
2018,04,26,02,23,10.60
2018,04,26,02,24,10.60
2018,04,26,02,25,10.60
2018,04,26,02,26,10.60
2018,04,26,02,27,10.60
2018,04,26,02,28,10.60
2018,04,26,02,29,10.60
2018,04,26,02,30,10.60
2018,04,26,02,31,10.60
2018,04,26,02,32,10.60
2018,04,26,02,33,10.50
2018,04,26,02,34,10.50
2018,04,26,02,35,10.50
2018,04,26,02,36,10.50
2018,04,26,02,37,10.50
2018,04,26,02,38,10.50
2018,04,26,02,39,10.40
2018,04,26,02,40,10.40
2018,04,26,02,41,10.30
2018,04,26,02,42,10.30
2018,04,26,02,43,10.30
2018,04,26,02,44,10.30
2018,04,26,02,45,10.30
2018,04,26,02,46,10.30
2018,04,26,02,47,10.20
2018,04,26,02,48,10.20
2018,04,26,02,49,10.20
2018,04,26,02,50,10.10
2018,04,26,02,51,10.10
2018,04,26,02,52,10.10
2018,04,26,02,53,10.20
2018,04,26,02,54,10.10
2018,04,26,02,55,10.10
2018,04,26,02,56,10.10
2018,04,26,02,57,10.10
2018,04,26,02,58,10.00
2018,04,26,02,59,10.00
2018,04,26,03,00,9.90
2018,04,26,03,01,9.90
2018,04,26,03,02,9.80
2018,04,26,03,03,9.80
2018,04,26,03,04,9.80
2018,04,26,03,05,9.80
2018,04,26,03,06,9.70
2018,04,26,03,07,9.70
2018,04,26,03,08,9.70
2018,04,26,03,09,9.70
2018,04,26,03,10,9.70
2018,04,26,03,11,9.70
2018,04,26,03,12,9.70
2018,04,26,03,13,9.70
2018,04,26,03,14,9.70
2018,04,26,03,15,9.70
2018,04,26,03,16,9.70
2018,04,26,03,17,9.70
2018,04,26,03,18,9.70
2018,04,26,03,19,9.70
2018,04,26,03,20,9.70
2018,04,26,03,21,9.80
2018,04,26,03,22,9.80
2018,04,26,03,23,9.80
2018,04,26,03,24,9.80
2018,04,26,03,25,9.80
2018,04,26,03,26,9.80
2018,04,26,03,27,9.90
2018,04,26,03,28,9.90
2018,04,26,03,29,9.90
2018,04,26,03,30,9.90
2018,04,26,03,31,9.90
2018,04,26,03,32,9.90
2018,04,26,03,33,9.90
2018,04,26,03,34,9.90
2018,04,26,03,35,9.90
2018,04,26,03,36,9.90
2018,04,26,03,37,9.90
2018,04,26,03,38,9.90
2018,04,26,03,39,9.90
2018,04,26,03,40,9.90
2018,04,26,03,41,10.00
2018,04,26,03,42,10.00
2018,04,26,03,43,10.00
2018,04,26,03,44,10.00
2018,04,26,03,45,10.00
2018,04,26,03,46,10.00
2018,04,26,03,47,10.00
2018,04,26,03,48,10.00
2018,04,26,03,49,9.90
2018,04,26,03,50,9.90
2018,04,26,03,51,9.90
2018,04,26,03,52,9.90
2018,04,26,03,53,9.90
2018,04,26,03,54,9.90
2018,04,26,03,55,9.80
2018,04,26,03,56,9.80
2018,04,26,03,57,9.80
2018,04,26,03,58,9.80
2018,04,26,03,59,9.80
2018,04,26,04,00,9.70
2018,04,26,04,01,9.70
2018,04,26,04,02,9.70
2018,04,26,04,03,9.70
2018,04,26,04,04,9.70
2018,04,26,04,05,9.70
2018,04,26,04,06,9.70
2018,04,26,04,07,9.60
2018,04,26,04,08,9.60
2018,04,26,04,09,9.60
2018,04,26,04,10,9.60
2018,04,26,04,11,9.60
2018,04,26,04,12,9.60
2018,04,26,04,13,9.70
2018,04,26,04,14,9.70
2018,04,26,04,15,9.80
2018,04,26,04,16,9.80
2018,04,26,04,17,9.80
2018,04,26,04,18,9.90
2018,04,26,04,19,10.00
2018,04,26,04,20,10.10
2018,04,26,04,21,10.20
2018,04,26,04,22,10.30
2018,04,26,04,23,10.50
2018,04,26,04,24,10.60
2018,04,26,04,25,10.80
2018,04,26,04,26,10.90
2018,04,26,04,27,11.00
2018,04,26,04,28,11.20
2018,04,26,04,29,11.30
2018,04,26,04,30,11.40
2018,04,26,04,31,11.60
2018,04,26,04,32,11.70
2018,04,26,04,33,11.90
2018,04,26,04,34,12.00
2018,04,26,04,35,12.20
2018,04,26,04,36,12.20
2018,04,26,04,37,12.30
2018,04,26,04,38,12.30
2018,04,26,04,39,12.30
2018,04,26,04,40,12.30
2018,04,26,04,41,12.40
2018,04,26,04,42,12.40
2018,04,26,04,43,12.50
2018,04,26,04,44,12.50
2018,04,26,04,45,12.60
2018,04,26,04,46,12.60
2018,04,26,04,47,12.60
2018,04,26,04,48,12.60
2018,04,26,04,49,12.60
2018,04,26,04,50,12.60
2018,04,26,04,51,12.60
2018,04,26,04,52,12.60
2018,04,26,04,53,12.60
2018,04,26,04,54,12.60
2018,04,26,04,55,12.60
2018,04,26,04,56,12.60
2018,04,26,04,57,12.60
2018,04,26,04,58,12.60
2018,04,26,04,59,12.60
2018,04,26,05,00,12.60
2018,04,26,05,01,12.70
2018,04,26,05,02,12.70
2018,04,26,05,03,12.70
2018,04,26,05,04,12.70
2018,04,26,05,05,12.70
2018,04,26,05,06,12.70
2018,04,26,05,07,12.70
2018,04,26,05,08,12.70
2018,04,26,05,09,12.70
2018,04,26,05,10,12.70
2018,04,26,05,11,12.70
2018,04,26,05,12,12.70
2018,04,26,05,13,12.70
2018,04,26,05,14,12.70
2018,04,26,05,15,12.70
2018,04,26,05,16,12.70
2018,04,26,05,17,12.70
2018,04,26,05,18,12.80
2018,04,26,05,19,12.80
2018,04,26,05,20,12.80
2018,04,26,05,21,12.90
2018,04,26,05,22,12.90
2018,04,26,05,23,12.90
2018,04,26,05,24,12.90
2018,04,26,05,25,13.00
2018,04,26,05,26,13.00
2018,04,26,05,27,13.10
2018,04,26,05,28,13.10
2018,04,26,05,29,13.20
2018,04,26,05,30,13.20
2018,04,26,05,31,13.20
2018,04,26,05,32,13.30
2018,04,26,05,33,13.30
2018,04,26,05,34,13.30
2018,04,26,05,35,13.30
2018,04,26,05,36,13.30
2018,04,26,05,37,13.30
2018,04,26,05,38,13.30
2018,04,26,05,39,13.30
2018,04,26,05,40,13.30
2018,04,26,05,41,13.30
2018,04,26,05,42,13.30
2018,04,26,05,43,13.30
2018,04,26,05,44,13.30
2018,04,26,05,45,13.30
2018,04,26,05,46,13.30
2018,04,26,05,47,13.30
2018,04,26,05,48,13.30
2018,04,26,05,49,13.30
2018,04,26,05,50,13.30
2018,04,26,05,51,13.30
2018,04,26,05,52,13.30
2018,04,26,05,53,13.30
2018,04,26,05,54,13.20
2018,04,26,05,55,13.20
2018,04,26,05,56,13.20
2018,04,26,05,57,13.20
2018,04,26,05,58,13.20
2018,04,26,05,59,13.20
2018,04,26,06,00,13.20
2018,04,26,06,01,13.20
2018,04,26,06,02,13.20
2018,04,26,06,03,13.20
2018,04,26,06,04,13.20
2018,04,26,06,05,13.20
2018,04,26,06,06,13.20
2018,04,26,06,07,13.20
2018,04,26,06,08,13.20
2018,04,26,06,09,13.20
2018,04,26,06,10,13.20
2018,04,26,06,11,13.20
2018,04,26,06,12,13.30
2018,04,26,06,13,13.30
2018,04,26,06,14,13.30
2018,04,26,06,15,13.30
2018,04,26,06,16,13.40
2018,04,26,06,17,13.40
2018,04,26,06,18,13.40
2018,04,26,06,19,13.40
2018,04,26,06,20,13.50
2018,04,26,06,21,13.50
2018,04,26,06,22,13.50
2018,04,26,06,23,13.60
2018,04,26,06,24,13.70
2018,04,26,06,25,13.70
2018,04,26,06,26,13.70
2018,04,26,06,27,13.70
2018,04,26,06,28,13.80
2018,04,26,06,29,13.80
2018,04,26,06,30,13.80
2018,04,26,06,31,13.80
2018,04,26,06,32,13.80
2018,04,26,06,33,13.90
2018,04,26,06,34,13.90
2018,04,26,06,35,14.00
2018,04,26,06,36,14.00
2018,04,26,06,37,14.00
2018,04,26,06,38,14.10
2018,04,26,06,39,14.10
2018,04,26,06,40,14.10
2018,04,26,06,41,14.10
2018,04,26,06,42,14.10
2018,04,26,06,43,14.10
2018,04,26,06,44,14.10
2018,04,26,06,45,14.10
2018,04,26,06,46,14.10
2018,04,26,06,47,14.10
2018,04,26,06,48,14.10
2018,04,26,06,49,14.10
2018,04,26,06,50,14.10
2018,04,26,06,51,14.10
2018,04,26,06,52,14.10
2018,04,26,06,53,14.10
2018,04,26,06,54,14.00
2018,04,26,06,55,14.00
2018,04,26,06,56,14.00
2018,04,26,06,57,14.00
2018,04,26,06,58,14.00
2018,04,26,06,59,14.00
2018,04,26,07,00,14.10
2018,04,26,07,01,14.10
2018,04,26,07,02,14.10
2018,04,26,07,03,14.20
2018,04,26,07,04,14.20
2018,04,26,07,05,14.20
2018,04,26,07,06,14.30
2018,04,26,07,07,14.40
2018,04,26,07,08,14.40
2018,04,26,07,09,14.50
2018,04,26,07,10,14.50
2018,04,26,07,11,14.60
2018,04,26,07,12,14.70
2018,04,26,07,13,14.70
2018,04,26,07,14,14.80
2018,04,26,07,15,14.80
2018,04,26,07,16,14.80
2018,04,26,07,17,14.90
2018,04,26,07,18,14.90
2018,04,26,07,19,15.00
2018,04,26,07,20,15.00
2018,04,26,07,21,15.10
2018,04,26,07,22,15.20
2018,04,26,07,23,15.20
2018,04,26,07,24,15.30
2018,04,26,07,25,15.40
2018,04,26,07,26,15.40
2018,04,26,07,27,15.50
2018,04,26,07,28,15.60
2018,04,26,07,29,15.60
2018,04,26,07,30,15.70
2018,04,26,07,31,15.70
2018,04,26,07,32,15.80
2018,04,26,07,33,15.80
2018,04,26,07,34,15.80
2018,04,26,07,35,15.90
2018,04,26,07,36,15.90
2018,04,26,07,37,15.90
2018,04,26,07,38,16.00
2018,04,26,07,39,16.00
2018,04,26,07,40,16.00
2018,04,26,07,41,16.00
2018,04,26,07,42,16.10
2018,04,26,07,43,16.10
2018,04,26,07,44,16.10
2018,04,26,07,45,16.10
2018,04,26,07,46,16.10
2018,04,26,07,47,16.10
2018,04,26,07,48,16.00
2018,04,26,07,49,16.00
2018,04,26,07,50,16.00
2018,04,26,07,51,15.90
2018,04,26,07,52,15.90
2018,04,26,07,53,16.00
2018,04,26,07,54,16.00
2018,04,26,07,55,16.00
2018,04,26,07,56,15.90
2018,04,26,07,57,16.00
2018,04,26,07,58,16.00
2018,04,26,07,59,16.00
2018,04,26,08,00,16.10
2018,04,26,08,01,16.10
2018,04,26,08,02,16.10
2018,04,26,08,03,16.10
2018,04,26,08,04,16.20
2018,04,26,08,05,16.20
2018,04,26,08,06,16.30
2018,04,26,08,07,16.30
2018,04,26,08,08,16.30
2018,04,26,08,09,16.40
2018,04,26,08,10,16.40
2018,04,26,08,11,16.40
2018,04,26,08,12,16.40
2018,04,26,08,13,16.40
2018,04,26,08,14,16.40
2018,04,26,08,15,16.50
2018,04,26,08,16,16.50
2018,04,26,08,17,16.60
2018,04,26,08,18,16.60
2018,04,26,08,19,16.60
2018,04,26,08,20,16.70
2018,04,26,08,21,16.70
2018,04,26,08,22,16.70
2018,04,26,08,23,16.70
2018,04,26,08,24,16.70
2018,04,26,08,25,16.70
2018,04,26,08,26,16.70
2018,04,26,08,27,16.60
2018,04,26,08,28,16.60
2018,04,26,08,29,16.60
2018,04,26,08,30,16.60
2018,04,26,08,31,16.60
2018,04,26,08,32,16.60
2018,04,26,08,33,16.60
2018,04,26,08,34,16.60
2018,04,26,08,35,16.60
2018,04,26,08,36,16.60
2018,04,26,08,37,16.60
2018,04,26,08,38,16.60
2018,04,26,08,39,16.60
2018,04,26,08,40,16.60
2018,04,26,08,41,16.50
2018,04,26,08,42,16.50
2018,04,26,08,43,16.50
2018,04,26,08,44,16.50
2018,04,26,08,45,16.50
2018,04,26,08,46,16.50
2018,04,26,08,47,16.60
2018,04,26,08,48,16.60
2018,04,26,08,49,16.60
2018,04,26,08,50,16.70
2018,04,26,08,51,16.70
2018,04,26,08,52,16.70
2018,04,26,08,53,16.80
2018,04,26,08,54,16.80
2018,04,26,08,55,16.90
2018,04,26,08,56,17.00
2018,04,26,08,57,17.00
2018,04,26,08,58,17.10
2018,04,26,08,59,17.10
2018,04,26,09,00,17.20
2018,04,26,09,01,17.20
2018,04,26,09,02,17.30
2018,04,26,09,03,17.40
2018,04,26,09,04,17.40
2018,04,26,09,05,17.50
2018,04,26,09,06,17.50
2018,04,26,09,07,17.60
2018,04,26,09,08,17.60
2018,04,26,09,09,17.70
2018,04,26,09,10,17.80
2018,04,26,09,11,17.80
2018,04,26,09,12,17.80
2018,04,26,09,13,17.90
2018,04,26,09,14,17.90
2018,04,26,09,15,18.00
2018,04,26,09,16,18.00
2018,04,26,09,17,18.10
2018,04,26,09,18,18.10
2018,04,26,09,19,18.10
2018,04,26,09,20,18.20
2018,04,26,09,21,18.20
2018,04,26,09,22,18.30
2018,04,26,09,23,18.20
2018,04,26,09,24,18.20
2018,04,26,09,25,18.20
2018,04,26,09,26,18.20
2018,04,26,09,27,18.20
2018,04,26,09,28,18.30
2018,04,26,09,29,18.30
2018,04,26,09,30,18.40
2018,04,26,09,31,18.50
2018,04,26,09,32,18.50
2018,04,26,09,33,18.60
2018,04,26,09,34,18.60
2018,04,26,09,35,18.60
2018,04,26,09,36,18.60
2018,04,26,09,37,18.60
2018,04,26,09,38,18.60
2018,04,26,09,39,18.60
2018,04,26,09,40,18.70
2018,04,26,09,41,18.70
2018,04,26,09,42,18.80
2018,04,26,09,43,18.80
2018,04,26,09,44,18.80
2018,04,26,09,45,18.80
2018,04,26,09,46,18.90
2018,04,26,09,47,18.90
2018,04,26,09,48,19.00
2018,04,26,09,49,19.00
2018,04,26,09,50,19.00
2018,04,26,09,51,19.10
2018,04,26,09,52,19.10
2018,04,26,09,53,19.10
2018,04,26,09,54,19.20
2018,04,26,09,55,19.20
2018,04,26,09,56,19.10
2018,04,26,09,57,19.10
2018,04,26,09,58,19.20
2018,04,26,09,59,19.20
2018,04,26,10,00,19.30
2018,04,26,10,01,19.30
2018,04,26,10,02,19.40
2018,04,26,10,03,19.50
2018,04,26,10,04,19.50
2018,04,26,10,05,19.60
2018,04,26,10,06,19.60
2018,04,26,10,07,19.60
2018,04,26,10,08,19.50
2018,04,26,10,09,19.50
2018,04,26,10,10,19.50
2018,04,26,10,11,19.50
2018,04,26,10,12,19.40
2018,04,26,10,13,19.30
2018,04,26,10,14,19.10
2018,04,26,10,15,19.00
2018,04,26,10,16,18.90
2018,04,26,10,17,18.90
2018,04,26,10,18,18.90
2018,04,26,10,19,18.90
2018,04,26,10,20,18.80
2018,04,26,10,21,18.80
2018,04,26,10,22,18.90
2018,04,26,10,23,18.90
2018,04,26,10,24,18.90
2018,04,26,10,25,18.90
2018,04,26,10,26,18.80
2018,04,26,10,27,18.80
2018,04,26,10,28,18.80
2018,04,26,10,29,18.80
2018,04,26,10,30,18.80
2018,04,26,10,31,18.80
2018,04,26,10,32,18.80
2018,04,26,10,33,18.80
2018,04,26,10,34,18.80
2018,04,26,10,35,18.80
2018,04,26,10,36,18.80
2018,04,26,10,37,18.80
2018,04,26,10,38,18.80
2018,04,26,10,39,18.80
2018,04,26,10,40,18.70
2018,04,26,10,41,18.70
2018,04,26,10,42,18.70
2018,04,26,10,43,18.80
2018,04,26,10,44,18.80
2018,04,26,10,45,18.90
2018,04,26,10,46,19.00
2018,04,26,10,47,19.10
2018,04,26,10,48,19.20
2018,04,26,10,49,19.20
2018,04,26,10,50,19.30
2018,04,26,10,51,19.40
2018,04,26,10,52,19.40
2018,04,26,10,53,19.50
2018,04,26,10,54,19.60
2018,04,26,10,55,19.60
2018,04,26,10,56,19.60
2018,04,26,10,57,19.70
2018,04,26,10,58,19.80
2018,04,26,10,59,19.80
2018,04,26,11,00,19.90
2018,04,26,11,01,19.90
2018,04,26,11,02,19.90
2018,04,26,11,03,19.90
2018,04,26,11,04,20.00
2018,04,26,11,05,20.00
2018,04,26,11,06,20.00
2018,04,26,11,07,19.90
2018,04,26,11,08,19.90
2018,04,26,11,09,19.90
2018,04,26,11,10,19.80
2018,04,26,11,11,19.80
2018,04,26,11,12,19.90
2018,04,26,11,13,19.80
2018,04,26,11,14,19.80
2018,04,26,11,15,19.80
2018,04,26,11,16,19.80
2018,04,26,11,17,19.90
2018,04,26,11,18,19.90
2018,04,26,11,19,19.90
2018,04,26,11,20,19.90
2018,04,26,11,21,19.90
2018,04,26,11,22,19.90
2018,04,26,11,23,19.90
2018,04,26,11,24,19.90
2018,04,26,11,25,20.00
2018,04,26,11,26,20.00
2018,04,26,11,27,20.00
2018,04,26,11,28,20.10
2018,04,26,11,29,20.10
2018,04,26,11,30,20.10
2018,04,26,11,31,20.10
2018,04,26,11,32,20.20
2018,04,26,11,33,20.20
2018,04,26,11,34,20.30
2018,04,26,11,35,20.30
2018,04,26,11,36,20.40
2018,04,26,11,37,20.40
2018,04,26,11,38,20.40
2018,04,26,11,39,20.40
2018,04,26,11,40,20.50
2018,04,26,11,41,20.50
2018,04,26,11,42,20.50
2018,04,26,11,43,20.50
2018,04,26,11,44,20.30
2018,04,26,11,45,20.30
2018,04,26,11,46,20.20
2018,04,26,11,47,20.20
2018,04,26,11,48,20.20
2018,04,26,11,49,20.10
2018,04,26,11,50,20.00
2018,04,26,11,51,20.00
2018,04,26,11,52,20.00
2018,04,26,11,53,20.10
2018,04,26,11,54,20.20
2018,04,26,11,55,20.20
2018,04,26,11,56,20.20
2018,04,26,11,57,20.20
2018,04,26,11,58,20.20
2018,04,26,11,59,20.20
2018,04,26,12,00,20.20
2018,04,26,12,01,20.30
2018,04,26,12,02,20.30
2018,04,26,12,03,20.40
2018,04,26,12,04,20.50
2018,04,26,12,05,20.50
2018,04,26,12,06,20.50
2018,04,26,12,07,20.60
2018,04,26,12,08,20.60
2018,04,26,12,09,20.60
2018,04,26,12,10,20.60
2018,04,26,12,11,20.70
2018,04,26,12,12,20.60
2018,04,26,12,13,20.60
2018,04,26,12,14,20.60
2018,04,26,12,15,20.60
2018,04,26,12,16,20.60
2018,04,26,12,17,20.60
2018,04,26,12,18,20.60
2018,04,26,12,19,20.60
2018,04,26,12,20,20.60
2018,04,26,12,21,20.70
2018,04,26,12,22,20.70
2018,04,26,12,23,20.70
2018,04,26,12,24,20.70
2018,04,26,12,25,20.80
2018,04,26,12,26,20.90
2018,04,26,12,27,20.90
2018,04,26,12,28,20.90
2018,04,26,12,29,20.90
2018,04,26,12,30,21.00
2018,04,26,12,31,21.00
2018,04,26,12,32,21.10
2018,04,26,12,33,21.20
2018,04,26,12,34,21.10
2018,04,26,12,35,21.10
2018,04,26,12,36,21.00
2018,04,26,12,37,20.90
2018,04,26,12,38,20.90
2018,04,26,12,39,20.90
2018,04,26,12,40,20.90
2018,04,26,12,41,21.00
2018,04,26,12,42,21.00
2018,04,26,12,43,20.90
2018,04,26,12,44,20.90
2018,04,26,12,45,20.90
2018,04,26,12,46,20.90
2018,04,26,12,47,20.90
2018,04,26,12,48,20.90
2018,04,26,12,49,20.90
2018,04,26,12,50,20.90
2018,04,26,12,51,20.90
2018,04,26,12,52,20.90
2018,04,26,12,53,20.90
2018,04,26,12,54,20.90
2018,04,26,12,55,20.90
2018,04,26,12,56,21.00
2018,04,26,12,57,21.00
2018,04,26,12,58,21.10
2018,04,26,12,59,21.10
2018,04,26,13,00,21.10
2018,04,26,13,01,21.10
2018,04,26,13,02,21.20
2018,04,26,13,03,21.20
2018,04,26,13,04,21.20
2018,04,26,13,05,21.30
2018,04,26,13,06,21.30
2018,04,26,13,07,21.40
2018,04,26,13,08,21.40
2018,04,26,13,09,21.50
2018,04,26,13,10,21.50
2018,04,26,13,11,21.60
2018,04,26,13,12,21.60
2018,04,26,13,13,21.60
2018,04,26,13,14,21.60
2018,04,26,13,15,21.60
2018,04,26,13,16,21.60
2018,04,26,13,17,21.60
2018,04,26,13,18,21.60
2018,04,26,13,19,21.70
2018,04,26,13,20,21.80
2018,04,26,13,21,21.80
2018,04,26,13,22,21.70
2018,04,26,13,23,21.70
2018,04,26,13,24,21.80
2018,04,26,13,25,21.90
2018,04,26,13,26,21.90
2018,04,26,13,27,22.10
2018,04,26,13,28,22.20
2018,04,26,13,29,22.30
2018,04,26,13,30,22.40
2018,04,26,13,31,22.50
2018,04,26,13,32,22.60
2018,04,26,13,33,22.70
2018,04,26,13,34,22.90
2018,04,26,13,35,22.90
2018,04,26,13,36,22.90
2018,04,26,13,37,23.00
2018,04,26,13,38,22.90
2018,04,26,13,39,22.70
2018,04,26,13,40,22.60
2018,04,26,13,41,22.60
2018,04,26,13,42,22.50
2018,04,26,13,43,22.50
2018,04,26,13,44,22.40
2018,04,26,13,45,22.40
2018,04,26,13,46,22.30
2018,04,26,13,47,22.30
2018,04,26,13,48,22.30
2018,04,26,13,49,22.20
2018,04,26,13,50,22.30
2018,04,26,13,51,22.30
2018,04,26,13,52,22.40
2018,04,26,13,53,22.50
2018,04,26,13,54,22.60
2018,04,26,13,55,22.60
2018,04,26,13,56,22.60
2018,04,26,13,57,22.70
2018,04,26,13,58,22.70
2018,04,26,13,59,22.70
2018,04,26,14,00,22.70
2018,04,26,14,01,22.60
2018,04,26,14,02,22.60
2018,04,26,14,03,22.50
2018,04,26,14,04,22.50
2018,04,26,14,05,22.40
2018,04,26,14,06,22.40
2018,04,26,14,07,22.40
2018,04,26,14,08,22.40
2018,04,26,14,09,22.40
2018,04,26,14,10,22.30
2018,04,26,14,11,22.40
2018,04,26,14,12,22.40
2018,04,26,14,13,22.40
2018,04,26,14,14,22.50
2018,04,26,14,15,22.50
2018,04,26,14,16,22.50
2018,04,26,14,17,22.60
2018,04,26,14,18,22.60
2018,04,26,14,19,22.60
2018,04,26,14,20,22.60
2018,04,26,14,21,22.70
2018,04,26,14,22,22.70
2018,04,26,14,23,22.80
2018,04,26,14,24,22.70
2018,04,26,14,25,22.60
2018,04,26,14,26,22.50
2018,04,26,14,27,22.40
2018,04,26,14,28,22.50
2018,04,26,14,29,22.60
2018,04,26,14,30,22.70
2018,04,26,14,31,22.80
2018,04,26,14,32,22.70
2018,04,26,14,33,22.70
2018,04,26,14,34,22.70
2018,04,26,14,35,22.70
2018,04,26,14,36,22.70
2018,04,26,14,37,22.90
2018,04,26,14,38,23.00
2018,04,26,14,39,23.10
2018,04,26,14,40,23.20
2018,04,26,14,41,23.20
2018,04,26,14,42,23.30
2018,04,26,14,43,23.30
2018,04,26,14,44,23.30
2018,04,26,14,45,23.30
2018,04,26,14,46,23.20
2018,04,26,14,47,23.20
2018,04,26,14,48,23.30
2018,04,26,14,49,23.30
2018,04,26,14,50,23.30
2018,04,26,14,51,23.30
2018,04,26,14,52,23.40
2018,04,26,14,53,23.40
2018,04,26,14,54,23.50
2018,04,26,14,55,23.60
2018,04,26,14,56,23.60
2018,04,26,14,57,23.70
2018,04,26,14,58,23.80
2018,04,26,14,59,23.90
2018,04,26,15,00,23.90
2018,04,26,15,01,23.90
2018,04,26,15,02,24.00
2018,04,26,15,03,23.90
2018,04,26,15,04,23.90
2018,04,26,15,05,24.00
2018,04,26,15,06,24.00
2018,04,26,15,07,24.00
2018,04,26,15,08,23.90
2018,04,26,15,09,23.90
2018,04,26,15,10,23.80
2018,04,26,15,11,23.70
2018,04,26,15,12,23.80
2018,04,26,15,13,23.80
2018,04,26,15,14,23.80
2018,04,26,15,15,23.80
2018,04,26,15,16,23.80
2018,04,26,15,17,23.70
2018,04,26,15,18,23.70
2018,04,26,15,19,23.70
2018,04,26,15,20,23.70
2018,04,26,15,21,23.80
2018,04,26,15,22,23.80
2018,04,26,15,23,23.90
2018,04,26,15,24,23.90
2018,04,26,15,25,23.90
2018,04,26,15,26,23.90
2018,04,26,15,27,23.80
2018,04,26,15,28,23.80
2018,04,26,15,29,23.80
2018,04,26,15,30,23.80
2018,04,26,15,31,23.80
2018,04,26,15,32,23.80
2018,04,26,15,33,23.80
2018,04,26,15,34,23.90
2018,04,26,15,35,23.90
2018,04,26,15,36,24.00
2018,04,26,15,37,24.00
2018,04,26,15,38,24.00
2018,04,26,15,39,24.00
2018,04,26,15,40,24.10
2018,04,26,15,41,24.10
2018,04,26,15,42,24.10
2018,04,26,15,43,24.10
2018,04,26,15,44,24.10
2018,04,26,15,45,24.10
2018,04,26,15,46,24.00
2018,04,26,15,47,23.90
2018,04,26,15,48,23.80
2018,04,26,15,49,23.80
2018,04,26,15,50,23.80
2018,04,26,15,51,23.80
2018,04,26,15,52,23.70
2018,04,26,15,53,23.70
2018,04,26,15,54,23.70
2018,04,26,15,55,23.70
2018,04,26,15,56,23.70
2018,04,26,15,57,23.60
2018,04,26,15,58,23.60
2018,04,26,15,59,23.70
2018,04,26,16,00,23.80
2018,04,26,16,01,23.90
2018,04,26,16,02,23.80
2018,04,26,16,03,23.80
2018,04,26,16,04,23.90
2018,04,26,16,05,23.90
2018,04,26,16,06,24.00
2018,04,26,16,07,24.20
2018,04,26,16,08,24.30
2018,04,26,16,09,24.40
2018,04,26,16,10,24.40
2018,04,26,16,11,24.50
2018,04,26,16,12,24.50
2018,04,26,16,13,24.50
2018,04,26,16,14,24.50
2018,04,26,16,15,24.50
2018,04,26,16,16,24.40
2018,04,26,16,17,24.40
2018,04,26,16,18,24.40
2018,04,26,16,19,24.40
2018,04,26,16,20,24.40
2018,04,26,16,21,24.40
2018,04,26,16,22,24.40
2018,04,26,16,23,24.40
2018,04,26,16,24,24.50
2018,04,26,16,25,24.40
2018,04,26,16,26,24.40
2018,04,26,16,27,24.40
2018,04,26,16,28,24.40
2018,04,26,16,29,24.30
2018,04,26,16,30,24.20
2018,04,26,16,31,24.20
2018,04,26,16,32,24.30
2018,04,26,16,33,24.30
2018,04,26,16,34,24.40
2018,04,26,16,35,24.40
2018,04,26,16,36,24.50
2018,04,26,16,37,24.50
2018,04,26,16,38,24.60
2018,04,26,16,39,24.60
2018,04,26,16,40,24.60
2018,04,26,16,41,24.70
2018,04,26,16,42,24.70
2018,04,26,16,43,24.60
2018,04,26,16,44,24.60
2018,04,26,16,45,24.60
2018,04,26,16,46,24.60
2018,04,26,16,47,24.60
2018,04,26,16,48,24.60
2018,04,26,16,49,24.60
2018,04,26,16,50,24.60
2018,04,26,16,51,24.60
2018,04,26,16,52,24.50
2018,04,26,16,53,24.50
2018,04,26,16,54,24.40
2018,04,26,16,55,24.30
2018,04,26,16,56,24.30
2018,04,26,16,57,24.30
2018,04,26,16,58,24.30
2018,04,26,16,59,24.30
2018,04,26,17,00,24.30
2018,04,26,17,01,24.30
2018,04,26,17,02,24.40
2018,04,26,17,03,24.40
2018,04,26,17,04,24.40
2018,04,26,17,05,24.40
2018,04,26,17,06,24.40
2018,04,26,17,07,24.40
2018,04,26,17,08,24.50
2018,04,26,17,09,24.50
2018,04,26,17,10,24.50
2018,04,26,17,11,24.60
2018,04,26,17,12,24.60
2018,04,26,17,13,24.60
2018,04,26,17,14,24.50
2018,04,26,17,15,24.60
2018,04,26,17,16,24.50
2018,04,26,17,17,24.40
2018,04,26,17,18,24.40
2018,04,26,17,19,24.30
2018,04,26,17,20,24.20
2018,04,26,17,21,24.20
2018,04,26,17,22,24.20